Sioux Falls, SD

12:59 AM CDT on October 01, 2016 (GMT -0500)
Foss

Weather History for KFSD - October, 2011

Change the Weather History Date:

Friday, October 7, 2011

  Actual Average Record
Temperature  
Mean Temperature 74 °F 52 °F  
Max Temperature 82 °F 64 °F 88 °F (1980)
Min Temperature 66 °F 39 °F 17 °F (1974)
Degree Days  
Heating Degree Days 0 14  
Month to date heating degree days 8 87  
Since 1 July heating degree days 207 291  
Cooling Degree Days 9 0  
Month to date cooling degree days 32 0  
Year to date cooling degree days 802 685  
Growing Degree Days 24 (Base 50)    
Moisture  
Dew Point 54 °F    
Average Humidity 52    
Maximum Humidity 64    
Minimum Humidity 36    
Precipitation  
Precipitation 0.04 in 0.08 in 1.50 in (2007)
Month to date precipitation 0.04 0.61  
Year to date precipitation 23.03 22.77  
Snow  
Snow 0.00 in 0.00 in T in (1970)
Month to date snowfall 0.0 0.1  
Since 1 July snowfall 0.0 0.1  
Since 1 September snowfall 0.0 0.1  
Snow Depth 0.00 in    
Sea Level Pressure  
Sea Level Pressure 29.77 in    
Wind  
Wind Speed 24 mph (South)    
Max Wind Speed 37 mph    
Max Gust Speed 47 mph    
Visibility 10 miles    
Events Rain , Thunderstorm    
T = Trace of Precipitation, MM = Missing Value Source: NWS Daily Summary

Daily Weather History Graph

Daily Weather History Graph

Search for Another Location

Airport or City:

Trip Planner

Search our weather history database for the weather conditions in past years. The results will help you decide how hot, cold, wet, or windy it might be!

Date:

Astronomy

Oct. 07, 2011 Rise Set
Actual Time 7:31 AM CDT 6:57 PM CDT
Civil Twilight 7:02 AM CDT 7:26 PM CDT
Nautical Twilight 6:29 AM CDT 7:59 PM CDT
Astronomical Twilight 5:56 AM CDT 8:32 PM CDT
Moon 4:47 PM CDT (10/7) 3:14 AM CDT (10/7)
Length of Visible Light 12h 23m
Length of Day
11h 26m
Waxing Gibbous, 83% of the Moon is Illuminated
Oct 7
Waxing Gibbous
Oct 11
Full
Oct 19
Last Quarter
Oct 26
New
Nov 2
First Quarter

Hourly Weather History & Observations

Time (CDT) Temp. Heat Index Dew Point Humidity Pressure Visibility Wind Dir Wind Speed Gust Speed Precip Events Conditions
12:56 AM 71.1 °F - 43.0 °F 36% 29.77 in 10.0 mi SSE 19.6 mph 28.8 mph N/A   Clear
1:56 AM 71.1 °F - 46.0 °F 41% 29.78 in 10.0 mi South 20.7 mph 33.4 mph N/A   Clear
2:56 AM 72.0 °F - 46.0 °F 40% 29.79 in 10.0 mi South 24.2 mph 35.7 mph N/A   Clear
3:45 AM 71.6 °F - 46.4 °F 41% 29.78 in 10.0 mi South 24.2 mph 34.5 mph N/A Thunderstorm Thunderstorm
3:56 AM 72.0 °F - 46.0 °F 40% 29.78 in 10.0 mi South 18.4 mph 29.9 mph N/A Thunderstorm Thunderstorm
4:37 AM 66.2 °F - 50.0 °F 56% 29.78 in 10.0 mi South 13.8 mph 23.0 mph 0.04 in   Mostly Cloudy
4:56 AM 68.0 °F - 50.0 °F 52% 29.75 in 10.0 mi SSE 15.0 mph 21.9 mph N/A   Partly Cloudy
5:56 AM 66.0 °F - 52.0 °F 60% 29.77 in 10.0 mi South 21.9 mph 27.6 mph 0.00 in Rain Light Rain
6:50 AM 66.2 °F - 51.8 °F 60% 29.78 in 10.0 mi SSE 21.9 mph 29.9 mph 0.00 in Rain , Thunderstorm Light Thunderstorms and Rain
6:56 AM 66.0 °F - 52.0 °F 60% 29.76 in 10.0 mi South 20.7 mph 33.4 mph 0.00 in Rain , Thunderstorm Light Thunderstorms and Rain
7:13 AM 66.2 °F - 51.8 °F 60% 29.75 in 10.0 mi SSE 25.3 mph 32.2 mph 0.00 in   Mostly Cloudy
7:56 AM 66.9 °F - 50.0 °F 54% 29.73 in 10.0 mi South 25.3 mph 34.5 mph 0.00 in   Partly Cloudy
8:56 AM 69.1 °F - 51.1 °F 53% 29.75 in 10.0 mi South 25.3 mph 35.7 mph N/A   Partly Cloudy
9:56 AM 71.1 °F - 52.0 °F 51% 29.74 in 10.0 mi South 31.1 mph 41.4 mph N/A   Partly Cloudy
10:56 AM 73.0 °F - 53.1 °F 49% 29.76 in 10.0 mi South 31.1 mph 46.0 mph N/A   Partly Cloudy
11:56 AM 75.2 °F - 55.4 °F 50% 29.78 in 10.0 mi South 29.9 mph 42.6 mph N/A   Scattered Clouds
12:56 PM 78.1 °F - 57.0 °F 48% 29.74 in 10.0 mi SSW 26.5 mph 43.7 mph N/A   Scattered Clouds
1:56 PM 79.0 °F - 57.9 °F 48% 29.73 in 10.0 mi SSW 26.5 mph 40.3 mph N/A   Mostly Cloudy
2:56 PM 80.1 °F 80.7 °F 59.0 °F 48% 29.73 in 10.0 mi SSW 24.2 mph 39.1 mph N/A   Mostly Cloudy
3:56 PM 81.0 °F 81.3 °F 59.0 °F 47% 29.72 in 10.0 mi South 28.8 mph 38.0 mph N/A   Scattered Clouds
4:56 PM 81.0 °F 81.6 °F 60.1 °F 49% 29.73 in 10.0 mi South 24.2 mph 38.0 mph N/A   Scattered Clouds
5:56 PM 80.1 °F 81.1 °F 61.0 °F 52% 29.74 in 10.0 mi South 20.7 mph 33.4 mph N/A   Scattered Clouds
6:56 PM 78.1 °F - 60.1 °F 54% 29.76 in 10.0 mi South 26.5 mph 36.8 mph N/A   Scattered Clouds
7:56 PM 77.0 °F - 61.0 °F 58% 29.77 in 10.0 mi South 26.5 mph 39.1 mph N/A   Mostly Cloudy
8:56 PM 75.9 °F - 61.0 °F 60% 29.78 in 10.0 mi South 24.2 mph 36.8 mph N/A   Partly Cloudy
9:56 PM 75.9 °F - 61.0 °F 60% 29.81 in 10.0 mi South 29.9 mph 43.7 mph 0.00 in   Partly Cloudy
10:56 PM 75.0 °F - 61.0 °F 62% 29.83 in 10.0 mi SSW 23.0 mph 34.5 mph N/A   Partly Cloudy
11:56 PM 73.9 °F - 61.0 °F 64% 29.83 in 10.0 mi SSW 18.4 mph 25.3 mph N/A   Clear